User: anonymous   Login
Location: Allen Fire Department Station 4
(33.1073°N, 96.6988°W)
Time: 05:32:39
(UTC+00:00)
Language:

SL-27 R/B - Orbit

View from above orbital plane
View from above orbital plane
View from above satellite
View from above satellite

Ground track
Ground track

The orbit data is extracted from the following two-line orbital elements,

1 40354U 14084B   22148.52288157  .00007789  00000-0  16973-3 0  9998
2 40354  74.7381 356.6869 0035297 187.5442 172.5246 15.43683188417521
Epoch (UTC): 28 May 2022 12:32:56
Eccentricity: 0.0035297
inclination: 74.7381°
perigee height: 411 km
apogee height: 459 km
right ascension of ascending node: 356.6869°
argument of perigee: 187.5442°
revolutions per day: 15.43683188
mean anomaly at epoch: 172.5246°
orbit number at epoch: 41752

The dashed part of the orbit path shows where the satellite is in the earth's shadow,  

DLR